sat.trackr.live / text

‹ back to catalog

STARLINK-11457 [DTC]

NORAD 62919 · 2025-027N

PAYLOAD ACTIVE UNKNOWN

§ Identity

Operator
Country
US
Launch date
2025-02-08
Launch site
AFETR
Launch vehicle
Mass (kg)
RCS (m²)

Purposes: comms

External: N2YO · Heavens-Above · Gunter

§ Orbital elements

Epoch: 2026-09-21T22:57:34.773408Z

Period
91.66 min
Inclination
42.9987°
Eccentricity
0.0003459
Mean motion
15.70969343 rev/d
Perigee alt
353.8 km
Apogee alt
358.5 km
Semi-major
6,734.3 km
B*
1.4783e-3
RAAN
244.2868°
Arg perigee
285.6649°
Mean anomaly
74.3837°
Rev number
9,402

§ Raw data

STARLINK-11457 [DTC]1 62919U 25027N   26264.95665247  .00194837  00000+0  14783-2 0  99932 62919  42.9987 244.2868 0003459 285.6649  74.3837 15.70969343 94027

JSON: /api/v1/satellites/62919 · /tle

For live sub-satellite position, see the globe view (requires WebGL).

§ Visibility from observer

Set your observer location to see the next 7 days of passes ≥ 10°. The values pass through the URL so the page stays shareable.

No JS? Fill the form by hand. The geolocation button needs JavaScript.